This is the latest recevied weather packets stored in our database for station/object GW1573. If no packets are shown the sender has not sent any weather packets the latest 10 day(s).
| Time | Temp. | Humidity | Pressure | Rain* | Wind** | Luminosity | Snow |
|---|---|---|---|---|---|---|---|
| 1777765721 | 8.33° C | 58% | 1017.2 hPa | 0 mm | - | - | - |
| 1777763532 | 9.44° C | 46% | 1016.9 hPa | 0 mm | - | - | - |
| 1777758851 | 10.56° C | 43% | 1016.2 hPa | 0 mm | - | - | - |
| 1777755634 | 12.22° C | 39% | 1016.2 hPa | 0 mm | - | - | - |
| 1777751654 | 12.78° C | 41% | 1016.2 hPa | 0 mm | - | - | - |
| 1777750969 | 13.89° C | 38% | 1016.2 hPa | 0 mm | - | - | - |
| 1777746280 | 13.33° C | 38% | 1016.5 hPa | 0 mm | - | - | - |
| 1777745574 | 12.22° C | 44% | 1016.9 hPa | 0 mm | - | - | - |
| 1777737984 | 10.56° C | 45% | 1017.6 hPa | 0 mm | - | - | - |
| 1777735839 | 10.56° C | 48% | 1017.6 hPa | 0 mm | - | - | - |
| 1777735453 | 11.11° C | 51% | 1017.9 hPa | 0 mm | - | - | - |
| 1777734042 | 10° C | 51% | 1017.6 hPa | 0 mm | - | - | - |
| 1777732610 | 8.89° C | 56% | 1017.6 hPa | 0 mm | - | - | - |
| 1777727567 | 6.67° C | 74% | 1017.9 hPa | 0 mm | - | - | - |
| 1777726834 | 6.11° C | 77% | 1017.6 hPa | 0 mm | - | - | - |
| 1777723604 | 2.22° C | 99% | 1017.6 hPa | 0 mm | - | - | - |
| 1777722891 | 1.67° C | 99% | 1017.2 hPa | 0 mm | - | - | - |
| 1777722152 | 1.11° C | 99% | 1017.6 hPa | 0 mm | - | - | - |
| 1777717127 | 0° C | 99% | 1017.6 hPa | 0 mm | - | - | - |
| 1777716391 | 0° C | 99% | 1017.6 hPa | 0 mm | - | - | - |
| 1777705944 | 1.11° C | 99% | 1016.9 hPa | 0 mm | - | - | - |
| 1777701647 | 3.33° C | 99% | 1017.9 hPa | 0 mm | - | - | - |
| 1777701288 | 3.33° C | 99% | 1017.6 hPa | 0 mm | - | - | - |
| 1777699821 | 3.33° C | 99% | 1017.9 hPa | 0 mm | - | - | - |
| 1777698388 | 2.22° C | 99% | 1017.9 hPa | 0 mm | - | - | - |
* Rain since midnight (hover to see other rain measurements)
** Current wind speed in m/s (hover to see current wind gust speed)